Weather History for Rosetown East, SK

Change the Weather History Date:

Friday, August 23, 2013

  Actual Average Record
Temperature  
Mean Temperature 66 °F -  
Max Temperature 83 °F - - ()
Min Temperature 50 °F - - ()
Cooling Degree Days 2    
Growing Degree Days 16 (Base 50)    
Moisture  
Dew Point 58 °F    
Average Humidity 71    
Maximum Humidity 95    
Minimum Humidity 37    
Precipitation  
Precipitation 0.01 in - - ()
Sea Level Pressure  
Sea Level Pressure 29.75 in    
Wind  
Wind Speed 5 mph ()    
Max Wind Speed 10 mph    
Max Gust Speed -    
T = Trace of Precipitation, MM = Missing Value Source: Averaged Metar Reports

Daily Weather History Graph

Daily Weather History Graph

Search for Another Location

Airport:

Trip Planner

Search our weather history database for the weather conditions in past years. The results will help you decide how hot, cold, wet, or windy it might be!

Date:

Astronomy

Aug. 23, 2013 Rise Set
Actual Time 6:10 AM CST 8:16 PM CST
Civil Twilight 5:34 AM CST 8:52 PM CST
Nautical Twilight 4:48 AM CST 9:37 PM CST
Astronomical Twilight 3:56 AM CST 10:29 PM CST
Moon 9:05 PM CST (8/23) 9:37 AM CST (8/23)
Length of Visible Light 15h 18m
Length of Day
14h 06m
Waning Gibbous, 91% of the Moon is Illuminated
Aug 23
Waning Gibbous
Aug 28
Last Quarter
Sep 5
New
Sep 12
First Quarter
Sep 19
Full

Hourly Weather History & Observations

Time (CST) Temp. Heat Index Dew Point Humidity Pressure Visibility Wind Dir Wind Speed Gust Speed Precip Events Conditions
12:00 AM 62 °F - 52 °F 62% 29.83 in - SSE 10.4 mph - -  
12:00 AM 61.5 °F - 52.3 °F 72% 29.83 in - SSE 10.4 mph - N/A   Unknown
1:00 AM 61.3 °F - 53.6 °F 76% 29.81 in - SSE 10.4 mph - N/A   Unknown
2:00 AM 60.8 °F - 54.1 °F 79% 29.80 in - SSE 8.1 mph - N/A   Unknown
3:00 AM 63 °F - 55 °F 67% 29.79 in - NNE 1.2 mph - -  
3:00 AM 63.3 °F - 54.9 °F 74% 29.79 in - NNE 1.2 mph - N/A   Unknown
4:00 AM 61.0 °F - 54.1 °F 78% 29.78 in - SSE 4.6 mph - N/A   Unknown
5:00 AM 59.9 °F - 54.5 °F 82% 29.78 in - SSW 2.3 mph - N/A   Unknown
6:00 AM 51 °F - 48 °F 87% 29.79 in - East 2.3 mph - -  
6:00 AM 50.9 °F - 48.2 °F 90% 29.79 in - East 2.3 mph - N/A   Unknown
7:00 AM 52.7 °F - 51.3 °F 95% 29.80 in - East 5.8 mph - N/A   Unknown
8:00 AM 58.6 °F - 55.0 °F 88% 29.79 in - SE 2.3 mph - N/A   Unknown
9:00 AM 63 °F - 58 °F 77% 29.78 in - East 3.5 mph - -  
9:00 AM 62.6 °F - 57.6 °F 84% 29.78 in - East 3.5 mph - N/A   Unknown
10:00 AM 69.3 °F - 58.6 °F 69% 29.77 in - ENE 2.3 mph - N/A   Unknown
11:00 AM 72.5 °F - 59.5 °F 64% 29.77 in - ESE 3.5 mph - N/A   Unknown
12:00 PM 75 °F - 60 °F 50% 29.76 in - East 3.5 mph - -  
12:00 PM 75.4 °F - 60.1 °F 59% 29.76 in - East 3.5 mph - N/A   Unknown
1:00 PM 83.5 °F 83.4 °F 59.2 °F 44% 29.73 in - ESE 5.8 mph - N/A   Unknown
2:00 PM 82.4 °F 82.9 °F 60.6 °F 48% 29.72 in - East 6.9 mph - N/A   Unknown
3:00 PM 83 °F - 61 °F 37% 29.70 in - ESE 8.1 mph - -  
3:00 PM 82.6 °F 83.1 °F 60.8 °F 48% 29.70 in - ESE 8.1 mph - N/A   Unknown
4:00 PM 82.0 °F 82.8 °F 61.7 °F 50% 29.70 in - ESE 8.1 mph - N/A   Unknown
5:00 PM 80.4 °F 81.4 °F 61.5 °F 52% 29.70 in - SE 6.9 mph - N/A   Unknown
6:00 PM 78.1 °F - 64.9 °F 64% 29.69 in - ESE 5.8 mph - N/A   Unknown
7:00 PM 74.8 °F - 65.5 °F 73% 29.67 in - ESE 5.8 mph - N/A   Unknown
8:00 PM 71.6 °F - 65.1 °F 80% 29.67 in - ESE 5.8 mph - N/A   Unknown
9:00 PM 68 °F - 64 °F 82% 29.68 in - ESE 5.8 mph - -  
9:00 PM 67.6 °F - 63.9 °F 88% 29.68 in - ESE 5.8 mph - N/A   Unknown
10:00 PM 65.7 °F - 62.4 °F 89% 29.67 in - East 5.8 mph - N/A   Unknown
11:00 PM 61.9 °F - 60.1 °F 94% 29.65 in - East 6.9 mph - N/A   Unknown